This is the latest recevied weather packets stored in our database for station/object KD6VPH. If no packets are shown the sender has not sent any weather packets the latest 10 day(s).
| Time | Temp. | Humidity | Pressure | Rain* | Wind** | Luminosity | Snow |
|---|---|---|---|---|---|---|---|
| 1777293338 | 9.44° C | 81% | 1012.9 hPa | 0 mm | - | 0 W/m² | - |
| 1777292739 | 9.44° C | 81% | 1012.7 hPa | 0 mm | - | 0 W/m² | - |
| 1777292139 | 9.44° C | 80% | 1012.7 hPa | 0 mm | - | 0 W/m² | - |
| 1777290939 | 9.44° C | 81% | 1012.5 hPa | 0 mm | - | 0 W/m² | - |
| 1777290339 | 8.89° C | 81% | 1012.5 hPa | 0 mm | - | 0 W/m² | - |
| 1777289139 | 8.33° C | 84% | 1012.3 hPa | 0 mm | - | 0 W/m² | - |
| 1777288539 | 8.33° C | 84% | 1012.3 hPa | 0 mm | - | 0 W/m² | - |
| 1777287939 | 7.78° C | 85% | 1012.2 hPa | 0 mm | - | 0 W/m² | - |
| 1777287339 | 7.78° C | 85% | 1012.1 hPa | 0 mm | - | 0 W/m² | - |
| 1777286739 | 7.22° C | 85% | 1012 hPa | 0 mm | - | 0 W/m² | - |
| 1777286139 | 7.22° C | 86% | 1011.9 hPa | 0 mm | - | 0 W/m² | - |
| 1777285539 | 7.22° C | 87% | 1011.9 hPa | 0 mm | - | 0 W/m² | - |
| 1777283739 | 6.11° C | 87% | 1011.9 hPa | 0 mm | - | 0 W/m² | - |
| 1777282539 | 6.11° C | 86% | 1011.7 hPa | 0 mm | - | 0 W/m² | - |
| 1777281939 | 6.11° C | 86% | 1011.8 hPa | 0 mm | - | 0 W/m² | - |
| 1777281339 | 6.67° C | 85% | 1011.9 hPa | 0 mm | - | 0 W/m² | - |
| 1777280739 | 6.67° C | 85% | 1011.9 hPa | 0 mm | - | 0 W/m² | - |
| 1777280139 | 6.67° C | 85% | 1012 hPa | 0 mm | - | 0 W/m² | - |
| 1777279539 | 6.67° C | 85% | 1011.9 hPa | 0 mm | - | 0 W/m² | - |
| 1777278939 | 6.67° C | 85% | 1012.1 hPa | 0 mm | - | 0 W/m² | - |
| 1777278339 | 6.67° C | 84% | 1012 hPa | 0 mm | - | 0 W/m² | - |
| 1777277739 | 7.22° C | 84% | 1012 hPa | 0 mm | - | 0 W/m² | - |
| 1777277139 | 7.22° C | 84% | 1012 hPa | 0 mm | - | 0 W/m² | - |
| 1777276539 | 7.22° C | 83% | 1012 hPa | 0 mm | - | 0 W/m² | - |
| 1777274740 | 7.78° C | 83% | 1011.7 hPa | 0 mm | - | 0 W/m² | - |
* Rain latest hour (hover to see other rain measurements)
** Current wind speed in m/s (hover to see current wind gust speed)